Location: Newark
(52.2090°N, 4.1550°W)
Time: 23:31:50
(UTC+00:00)

S-56A Canister/Altair - All Passes

Search period start: 18 October 2019 00:00
Search period end: 28 October 2019 00:00
Orbit: 633 x 2499 km, 38.9° (Epoch: 17 October)

Date Brightness Start Highest point End Pass type
(mag) Time Alt. Az. Time Alt. Az. Time Alt. Az.
18 Oct - 03:13:20 10° SSW 03:18:28 21° SE 03:25:06 10° ESE visible
18 Oct - 05:14:06 10° SW 05:21:21 37° S 05:31:39 10° ESE visible
18 Oct - 07:16:46 10° WSW 07:25:18 36° SSW 07:36:52 10° SE daylight
18 Oct - 09:21:12 10° WSW 09:29:25 23° SSW 09:39:15 10° SSE daylight
19 Oct - 02:41:34 10° S 02:45:54 18° SE 02:51:17 10° ESE visible
19 Oct - 04:41:49 10° SW 04:48:32 34° SSE 04:58:01 10° ESE visible
19 Oct - 06:44:14 10° WSW 06:52:17 36° S 07:03:23 10° SE daylight
19 Oct - 08:48:18 10° WSW 08:56:21 24° SSW 09:06:15 10° SSE daylight
20 Oct - 02:10:02 10° S 02:13:23 14° SE 02:17:20 10° ESE visible
20 Oct - 04:09:36 10° SW 04:15:47 31° SSE 04:24:26 10° ESE visible
20 Oct - 06:11:47 10° WSW 06:19:20 35° S 06:29:53 10° SE visible
20 Oct - 08:15:30 10° WSW 08:23:19 25° SSW 08:33:09 10° SSE daylight
21 Oct - 01:39:03 10° SSE 01:40:56 11° SE 01:42:58 10° ESE visible
21 Oct - 03:37:27 10° SW 03:43:06 28° SSE 03:50:51 10° ESE visible
21 Oct - 05:39:22 10° WSW 05:46:25 35° S 05:56:22 10° SE visible
21 Oct - 07:42:48 10° WSW 07:50:19 26° SSW 07:59:58 10° SSE daylight
21 Oct - 09:51:27 10° SW 09:53:56 11° SW 09:56:31 10° SSW daylight
22 Oct - 03:05:22 10° SSW 03:10:28 25° SSE 03:17:19 10° ESE visible
22 Oct - 05:07:01 10° WSW 05:13:35 34° S 05:22:52 10° ESE visible
22 Oct - 07:10:11 10° WSW 07:17:21 26° SSW 07:26:45 10° SSE daylight
22 Oct - 09:17:22 10° WSW 09:21:00 12° SW 09:24:56 10° SSW daylight
23 Oct - 02:33:21 10° SSW 02:37:54 22° SSE 02:43:48 10° ESE visible
23 Oct - 04:34:43 10° WSW 04:40:49 32° S 04:49:24 10° ESE visible
23 Oct - 06:37:39 10° WSW 06:44:26 26° SSW 06:53:28 10° SSE daylight
23 Oct - 08:43:53 10° WSW 08:48:04 13° SW 08:52:45 10° SSW daylight
24 Oct - 02:01:25 10° SSW 02:05:22 19° SSE 02:10:19 10° ESE visible
24 Oct - 04:02:28 10° SW 04:08:06 30° S 04:15:57 10° ESE visible
24 Oct - 06:05:10 10° WSW 06:11:34 26° SSW 06:20:11 10° SE visible
24 Oct - 08:10:42 10° WSW 08:15:10 14° SSW 08:20:17 10° S daylight
25 Oct - 01:29:36 10° S 01:32:54 16° SSE 01:36:48 10° ESE visible
25 Oct - 03:30:14 10° SW 03:35:26 28° S 03:42:33 10° ESE visible
25 Oct - 05:32:45 10° WSW 05:38:46 26° SSW 05:46:53 10° SE visible
25 Oct - 07:37:44 10° WSW 07:42:18 14° SSW 07:47:39 10° S daylight
26 Oct - 00:57:59 10° S 01:00:26 13° SSE 01:03:11 10° ESE visible
26 Oct - 02:58:03 10° SW 03:02:49 26° S 03:09:12 10° ESE visible
26 Oct - 05:00:22 10° WSW 05:05:59 26° S 05:13:35 10° SE visible
26 Oct - 07:04:54 10° WSW 07:09:28 15° SSW 07:14:52 10° S daylight
27 Oct - 00:26:56 10° SSE 00:27:59 11° SSE 00:29:06 10° SE night (unlit)
27 Oct - 02:25:55 10° SW 02:30:16 24° SSE 02:35:54 10° ESE visible
27 Oct - 04:28:02 10° WSW 04:33:17 25° S 04:40:19 10° SE visible
27 Oct - 06:32:12 10° WSW 06:36:39 15° SSW 06:42:00 10° S daylight
